| time (UTC) | temp F | wind direction | speed knots | gust knots | rain 1hr in | rain 24hr in | rain mn in | humidity % | barometer mb |
| 20260509090018 | 46 | 0.0 | 0.0 | 0.00 | 0.00 | 0.00 | 88 | 1032.6 | |
| 20260509083020 | 47 | 0.0 | 1.7 | 0.00 | 0.00 | 0.00 | 85 | 1032.4 | |
| 20260509080018 | 47 | 0.0 | 1.7 | 0.00 | 0.00 | 0.00 | 84 | 1032.0 | |
| 20260509073037 | 50 | 0.0 | 0.9 | 0.00 | 0.00 | 0.00 | 79 | 1032.1 | |
| 20260509070017 | 52 | 0.0 | 3.5 | 0.00 | 0.00 | 0.00 | 76 | 1032.3 | |
| 20260509063038 | 54 | 0.0 | 4.3 | 0.00 | 0.00 | 0.00 | 72 | 1032.7 | |
| 20260509060017 | 56 | 0.0 | 5.2 | 0.00 | 0.00 | 0.00 | 70 | 1032.9 | |
| 20260509053017 | 58 | 0.0 | 0.0 | 0.00 | 0.00 | 0.00 | 67 | 1033.1 | |
| 20260509050017 | 60 | 270 | 0.9 | 4.3 | 0.00 | 0.00 | 0.00 | 65 | 1033.0 |
| 20260509043019 | 61 | 293 | 0.9 | 3.5 | 0.00 | 0.00 | 0.00 | 64 | 1033.3 |
| 20260509040117 | 61 | 293 | 1.7 | 3.5 | 0.00 | 0.00 | 0.00 | 64 | 1033.6 |
| 20260509033018 | 59 | 315 | 1.7 | 2.6 | 0.00 | 0.00 | 0.00 | 67 | 1033.8 |
| 20260509030018 | 60 | 293 | 1.7 | 3.5 | 0.00 | 0.00 | 0.00 | 68 | 1034.3 |
| 20260509023017 | 58 | 315 | 1.7 | 3.5 | 0.00 | 0.00 | 0.00 | 70 | 1034.5 |
| 20260509020017 | 57 | 0 | 2.6 | 9.6 | 0.00 | 0.00 | 0.00 | 69 | 1035.0 |
| 20260509013017 | 58 | 0 | 2.6 | 7.0 | 0.00 | 0.00 | 0.00 | 67 | 1035.2 |
| 20260509010016 | 58 | 0 | 1.7 | 5.2 | 0.00 | 0.00 | 0.00 | 59 | 1035.4 |
| 20260509003017 | 57 | 23 | 1.7 | 6.1 | 0.00 | 0.00 | 0.00 | 62 | 1035.3 |
| 20260509000038 | 57 | 113 | 0.9 | 5.2 | 0.00 | 0.00 | 0.00 | 60 | 1035.3 |
| 20260508233018 | 56 | 113 | 0.9 | 3.5 | 0.00 | 0.00 | 0.00 | 64 | 1035.3 |
| 20260508230016 | 54 | 113 | 1.7 | 5.2 | 0.00 | 0.00 | 0.00 | 70 | 1035.3 |
| 20260508223016 | 51 | 68 | 0.9 | 2.6 | 0.00 | 0.00 | 0.00 | 77 | 1034.8 |
| 20260508220018 | 45 | 0.0 | 2.6 | 0.00 | 0.00 | 0.00 | 90 | 1033.9 | |
| 20260508213018 | 42 | 0.0 | 1.7 | 0.00 | 0.00 | 0.00 | 94 | 1032.9 | |
| 20260508210018 | 40 | 0.0 | 0.0 | 0.00 | 0.00 | 0.00 | 94 | 1032.4 | |
| 20260508203018 | 40 | 0.0 | 3.5 | 0.00 | 0.00 | 0.00 | 94 | 1032.1 | |
| 20260508193017 | 40 | 0.0 | 0.9 | 0.00 | 0.00 | 0.00 | 92 | 1031.4 | |
| 20260508190017 | 41 | 0.0 | 2.6 | 0.00 | 0.00 | 0.00 | 92 | 1031.4 | |
| 20260508183038 | 42 | 0.0 | 2.6 | 0.00 | 0.00 | 0.00 | 91 | 1031.3 | |
| 20260508180018 | 42 | 0.0 | 3.5 | 0.00 | 0.00 | 0.00 | 92 | 1031.1 | |
| 20260508173018 | 42 | 0.0 | 1.7 | 0.00 | 0.00 | 0.00 | 92 | 1031.2 | |
| 20260508170018 | 43 | 0.0 | 4.3 | 0.00 | 0.00 | 0.00 | 92 | 1031.3 | |
| 20260508163018 | 43 | 0.0 | 4.3 | 0.00 | 0.00 | 0.00 | 91 | 1031.4 | |
| 20260508160018 | 44 | 113 | 0.9 | 3.5 | 0.00 | 0.00 | 0.00 | 91 | 1032.0 |
| 20260508153017 | 45 | 0.0 | 5.2 | 0.00 | 0.00 | 0.00 | 91 | 1031.9 | |
| 20260508150017 | 45 | 0 | 0.9 | 6.1 | 0.00 | 0.00 | 0.00 | 91 | 1031.8 |
| 20260508143017 | 45 | 270 | 1.7 | 6.1 | 0.00 | 0.00 | 0.00 | 91 | 1031.9 |
| 20260508140019 | 45 | 293 | 1.7 | 7.0 | 0.00 | 0.00 | 0.00 | 91 | 1031.7 |
| 20260508133019 | 45 | 248 | 1.7 | 10.4 | 0.00 | 0.00 | 0.00 | 91 | 1031.7 |
| 20260508130040 | 45 | 158 | 1.7 | 7.0 | 0.00 | 0.00 | 0.00 | 91 | 1032.4 |
| 20260508123018 | 44 | 23 | 1.7 | 7.8 | 0.00 | 0.00 | 0.00 | 92 | 1032.0 |
| 20260508120018 | 44 | 270 | 1.7 | 9.6 | 0.00 | 0.00 | 0.00 | 92 | 1031.9 |
| 20260508113018 | 44 | 248 | 1.7 | 9.6 | 0.00 | 0.00 | 0.00 | 93 | 1031.7 |
| 20260508110018 | 45 | 248 | 0.9 | 7.0 | 0.00 | 0.00 | 0.00 | 92 | 1031.9 |
| 20260508103018 | 45 | 315 | 1.7 | 7.0 | 0.00 | 0.00 | 0.00 | 93 | 1032.2 |
| 20260508100038 | 45 | 270 | 1.7 | 9.6 | 0.00 | 0.00 | 0.00 | 94 | 1031.6 |
| 20260508093018 | 44 | 270 | 1.7 | 9.6 | 0.00 | 0.00 | 0.00 | 94 | 1031.3 |